Lid_Strength_Index
7 8 8 8 8 8 8 8 7 7 7 7 8 8 9 10 10 11 11 14 16 16 16 16 16 14 14 14 14 14 14 15
7 8 9 8 8 8 8 8 8 8 8 8 8 9 10 10 10 12 13 15 16 17 17 17 17 15 15 15 15 15 16 15
8 9 9 9 9 9 8 8 8 8 8 9 9 9 10 11 11 12 14 16 17 17 17 17 17 15 15 16 16 16 17 17
9 9 9 9 9 9 8 8 8 9 9 9 9 10 11 12 12 13 14 16 17 17 18 18 17 16 16 16 16 16 16 17
8 8 9 9 9 9 9 9 9 9 10 10 10 11 12 12 13 14 15 16 17 17 17 17 17 16 16 16 16 16 16 17
8 8 8 9 10 10 10 9 9 10 10 10 10 11 12 14 15 16 16 17 17 18 17 17 18 17 17 17 17 17 17 17
8 9 9 9 10 10 10 10 10 11 11 10 11 13 14 15 16 17 17 17 18 18 18 18 18 16 16 16 17 17 18 18
7 7 8 8 9 10 10 10 11 12 12 12 13 14 15 15 16 17 17 17 18 18 18 18 18 15 15 16 17 18 18 18
6 6 6 8 9 9 10 11 12 13 13 14 14 15 15 15 16 17 17 18 18 18 18 18 18 15 15 16 17 18 18 18
6 7 8 9 10 12 13 13 13 13 13 14 14 14 15 16 16 16 17 18 18 18 18 18 18 15 15 16 17 18 18 17
9 9 10 9 11 13 13 14 14 14 13 13 14 15 15 15 16 15 16 17 18 18 17 17 17 14 14 16 17 17 16 16
10 11 11 12 13 14 14 14 14 14 14 15 14 15 15 15 15 16 16 17 18 18 18 18 16 15 14 14 15 13 14 14
12 12 13 14 13 14 15 14 14 15 15 15 15 15 15 16 16 16 17 18 18 18 18 17 17 15 13 13 12 12 14 13
14 15 15 15 14 14 15 15 15 16 16 16 15 15 15 16 16 16 16 17 18 18 18 18 17 16 14 13 12 11 13 12
15 15 16 16 16 15 16 16 16 16 16 16 16 15 15 15 15 16 16 16 17 17 17 17 17 16 15 13 12 11 11 11
16 16 17 15 15 14 14 14 15 15 16 15 15 15 15 15 15 15 14 14 14 14 14 15 15 15 14 13 12 11 11 14
16 16 17 17 16 15 13 13 14 15 15 14 15 15 15 15 16 13 13 12 12 12 13 13 12 12 12 12 12 12 12 15
17 17 18 18 19 19 16 14 14 14 15 15 15 16 16 16 16 17 14 13 13 13 13 13 14 13 12 12 11 11 11 14
18 19 19 20 21 20 17 15 15 15 16 15 15 15 15 15 15 14 14 15 15 14 14 14 13 12 12 11 11 13 12 13
20 21 21 21 23 22 18 16 16 16 16 16 16 16 16 16 15 15 15 15 16 15 16 14 12 11 10 11 13 14 15 16